Location: Waco, TX
(31.5480°N, 97.1670°W)
Time: 04:34:19
(UTC-05:00)

ISS - Pass Details

Date: 10 May 2021
Orbit: 417 x 422 km, 51.6° (Epoch: 15 May)

Event Time Altitude Azimuth Distance (km) Brightness Sun altitude
Rises 23:28:23 0° 236° (SW) 2,346 - -33.2°
Reaches altitude 10° 23:30:31 10° 243° (WSW) 1,486 - -33.4°
Maximum altitude 23:33:45 46° 318° (NW) 568 - -33.8°
Drops below altitude 10° 23:37:00 10° 33° (NNE) 1,496 - -34.1°
Sets 23:39:09 0° 39° (NE) 2,362 - -34.4°
